Location: White Mills Observatory
(37.5374°N, 86.0303°W)
Time: 06:08:33
(UTC-04:00)

Amateur Radio Satellites - All Passes

Search period start: 23 October 2014 05:38
Search period end: 24 October 2014 05:38
Location: White Mills Observatory, 37.5374°N, 86.0303°W

Satellite Date Start Highest point End Downlink Frequencies (MHz)
Time Altitude Azimuth
RS-15 23 Oct 05:38:34 05:45:33 18° 20° (NNE) 05:52:39 29.354 - 29.394 USB, Beacon 29.352 USB
OPAL 23 Oct 05:38:40 05:43:39 50° 70° (ENE) 05:48:35 ?
Sapphire 23 Oct 06:25:46 06:30:23 28° 307° (NW) 06:35:02 437.095 MHz 1200 baud AX-25 AFSK
Uosat F 23 Oct 06:39:24 06:44:21 56° 287° (WNW) 06:49:15 435.120 FM
PCSat 23 Oct 06:49:52 06:53:31 18° 312° (NW) 06:57:10 145.825 MHz
JAS-2 23 Oct 07:01:21 07:09:04 63° 101° (E) 07:16:47 435.800 - 435.900 CW/SSB, 435.910 FM
OPAL 23 Oct 07:19:20 07:22:44 18° 265° (W) 07:26:09 ?
STRAND 1 23 Oct 07:20:01 07:24:54 46° 71° (ENE) 07:29:49 ?
AO-7 23 Oct 07:20:10 07:27:46 41° 297° (WNW) 07:35:22 29.400 - 29.500 MHz
Hamsat 23 Oct 07:30:37 07:34:49 77° 101° (ESE) 07:39:01 145.90 MHz
RS-15 23 Oct 07:50:48 08:01:34 50° 50° (NE) 08:12:43 29.354 - 29.394 USB, Beacon 29.352 USB
Saudisat 1A 23 Oct 08:26:10 08:30:12 37° 115° (ESE) 08:34:15 436.775 MHz
SO-67 23 Oct 08:29:29 08:32:47 42° 99° (E) 08:36:04 435.3500 MHz FM
PANSAT 23 Oct 08:36:58 08:38:07 11° 162° (SSE) 08:39:16 not established
JAS-2 23 Oct 08:47:16 08:53:29 28° 297° (WNW) 08:59:47 435.800 - 435.900 CW/SSB, 435.910 FM
STRAND 1 23 Oct 09:00:46 09:04:17 19° 267° (W) 09:07:50 ?
RS-15 23 Oct 10:03:22 10:13:52 48° 250° (WSW) 10:24:50 29.354 - 29.394 USB, Beacon 29.352 USB
HO-68 23 Oct 10:04:42 10:11:16 37° 98° (E) 10:17:47 435.675 MHz FM
Saudisat 1A 23 Oct 10:06:25 10:09:51 22° 311° (NW) 10:13:19 436.775 MHz
PANSAT 23 Oct 10:14:47 10:17:37 20° 175° (S) 10:20:27 not established
MaSat-1 23 Oct 10:18:42 10:20:45 20° 59° (ENE) 10:22:41 437.345 MHz
UKube-1 23 Oct 10:32:46 10:35:54 19° 95° (E) 10:39:00 145.840 MHz, 145.915 MHz
FUNcube-1 23 Oct 11:09:24 11:12:19 18° 93° (E) 11:15:11 145.950 - 145.970 MHz USB
Oscar 11 23 Oct 11:15:00 11:19:14 55° 100° (E) 11:23:27 145.825 FM, Beacon 2401.500 USB
HO-68 23 Oct 11:52:21 11:58:54 40° 295° (WNW) 12:05:26 435.675 MHz FM
PANSAT 23 Oct 11:54:28 11:57:13 19° 187° (S) 11:59:57 not established
ZACube-1 23 Oct 11:59:24 12:03:41 73° 102° (ESE) 12:07:50 437.345 MHz
UKube-1 23 Oct 12:08:12 12:12:08 33° 289° (WNW) 12:16:03 145.840 MHz, 145.915 MHz
KITSAT 1 23 Oct 12:23:35 12:30:20 31° 106° (ESE) 12:37:06 435.175 FM
FUNcube-1 23 Oct 12:44:58 12:48:46 32° 289° (WNW) 12:52:30 145.950 - 145.970 MHz USB
Oscar 11 23 Oct 12:53:11 12:54:55 12° 295° (WNW) 12:56:38 145.825 FM, Beacon 2401.500 USB
Sapphire 23 Oct 13:32:05 13:36:19 23° 50° (NE) 13:40:32 437.095 MHz 1200 baud AX-25 AFSK
Oscar 19 23 Oct 13:36:09 13:40:20 26° 67° (ENE) 13:44:31 437.125 CW, 437.150 USB
SO-50 23 Oct 13:40:14 13:44:18 36° 114° (ESE) 13:48:29 436.795 FM
AO-27 23 Oct 13:51:20 13:54:12 15° 62° (ENE) 13:57:05 436.795 MHz FM
JAS-1B 23 Oct 13:51:55 13:57:11 32° 68° (ENE) 14:02:10 435.800 - 435.900 CW/SSB
PCSat 23 Oct 13:54:21 13:59:20 36° 55° (NE) 14:04:17 145.825 MHz
ISS 23 Oct 13:57:54 14:01:11 65° 137° (SE) 14:04:30 145.800 FM
Oscar 10/S400 23 Oct 14:07:29 14:26:49 39° 153° (SSE) 14:46:51 145.825 - 145.975 CW/USB, Beacon 145.810 USB
KITSAT 1 23 Oct 14:17:23 14:25:16 56° 304° (NW) 14:33:13 435.175 FM
Oscar 16 23 Oct 14:20:28 14:25:36 71° 75° (ENE) 14:30:45 437.025 USB, Beacon 2401.1428
AO-Echo 23 Oct 14:28:55 14:33:26 40° 71° (ENE) 14:38:06 ?
Uribyol 2 23 Oct 14:37:26 14:42:20 43° 71° (ENE) 14:47:16 436.500 FM
ITAMSAT 1 23 Oct 14:43:00 14:47:57 46° 71° (ENE) 14:52:55 435.822 SSB
Gurwin Techsat 1B 23 Oct 14:54:05 14:58:39 30° 68° (ENE) 15:03:13 435.225 FM
TMSAT-1 23 Oct 15:06:26 15:10:55 29° 68° (ENE) 15:15:26 436.925 FM
UOSAT-12 23 Oct 15:12:39 15:16:36 29° 112° (ESE) 15:20:37 437.025 FM, 437.400 FM
Sapphire 23 Oct 15:14:46 15:20:01 51° 248° (WSW) 15:25:14 437.095 MHz 1200 baud AX-25 AFSK
Oscar 19 23 Oct 15:14:48 15:19:29 35° 262° (W) 15:24:10 437.125 CW, 437.150 USB
SO-50 23 Oct 15:21:16 15:24:56 24° 311° (NW) 15:28:41 436.795 FM
AO-27 23 Oct 15:27:59 15:33:08 65° 258° (WSW) 15:38:20 436.795 MHz FM
ISS 23 Oct 15:35:48 15:38:10 18° 334° (NNW) 15:40:31 145.800 FM
PCSat 23 Oct 15:37:59 15:42:36 29° 252° (WSW) 15:47:11 145.825 MHz
JAS-1B 23 Oct 15:42:35 15:47:52 30° 262° (W) 15:52:50 435.800 - 435.900 CW/SSB
Oscar 16 23 Oct 16:03:34 16:05:25 12° 269° (W) 16:07:16 437.025 USB, Beacon 2401.1428
AO-Echo 23 Oct 16:08:52 16:12:21 20° 267° (W) 16:15:57 ?
Uosat F 23 Oct 16:13:54 16:17:14 18° 64° (ENE) 16:20:36 435.120 FM
Uribyol 2 23 Oct 16:18:06 16:21:57 21° 266° (W) 16:25:50 436.500 FM
KITSAT 1 23 Oct 16:18:28 16:22:39 15° 328° (NNW) 16:26:51 435.175 FM
ITAMSAT 1 23 Oct 16:23:56 16:27:37 20° 266° (W) 16:31:20 435.822 SSB
AO-7 23 Oct 16:24:06 16:31:55 49° 65° (ENE) 16:39:45 29.400 - 29.500 MHz
Gurwin Techsat 1B 23 Oct 16:33:52 16:38:31 31° 264° (W) 16:43:12 435.225 FM
TMSAT-1 23 Oct 16:46:01 16:50:43 32° 263° (W) 16:55:27 436.925 FM
UOSAT-12 23 Oct 16:52:34 16:56:40 30° 309° (NW) 17:00:50 437.025 FM, 437.400 FM
Saudisat 1A 23 Oct 16:54:58 16:58:14 20° 48° (NE) 17:01:29 436.775 MHz
JAS-2 23 Oct 17:13:31 17:17:42 20° 60° (ENE) 17:22:13 435.800 - 435.900 CW/SSB, 435.910 FM
Uosat F 23 Oct 17:50:46 17:55:36 49° 260° (W) 18:00:30 435.120 FM
OPAL 23 Oct 17:52:15 17:54:53 14° 94° (E) 17:57:30 ?
AO-7 23 Oct 18:17:29 18:24:49 35° 262° (W) 18:32:12 29.400 - 29.500 MHz
Hamsat 23 Oct 18:21:57 18:25:55 41° 73° (ENE) 18:29:52 145.90 MHz
Saudisat 1A 23 Oct 18:33:47 18:37:59 44° 245° (WSW) 18:42:10 436.775 MHz
ISS 23 Oct 18:53:34 18:54:03 10° 15° (NNE) 18:54:32 145.800 FM
JAS-2 23 Oct 18:56:22 19:02:02 61° 260° (W) 19:08:30 435.800 - 435.900 CW/SSB, 435.910 FM
SO-67 23 Oct 19:02:29 19:03:26 11° 67° (ENE) 19:04:24 435.3500 MHz FM
OPAL 23 Oct 19:29:14 19:34:06 57° 289° (WNW) 19:38:55 ?
STRAND 1 23 Oct 19:33:36 19:37:08 18° 93° (E) 19:40:38 ?
Hamsat 23 Oct 19:59:45 20:02:01 14° 268° (W) 20:04:18 145.90 MHz
KITSAT 1 23 Oct 20:19:06 20:22:57 14° 31° (NNE) 20:26:48 435.175 FM
ISS 23 Oct 20:28:22 20:31:31 37° 34° (NE) 20:34:38 145.800 FM
HO-68 23 Oct 20:32:19 20:37:44 24° 60° (ENE) 20:43:09 435.675 MHz FM
SO-67 23 Oct 20:32:52 20:36:03 36° 262° (W) 20:39:15 435.3500 MHz FM
AO-40 23 Oct 21:04:09 23:14:43 20° 111° (ESE) 00:22:56 Beacon 2401.320
STRAND 1 23 Oct 21:11:35 21:16:31 47° 288° (WNW) 21:21:25 ?
UKube-1 23 Oct 21:27:27 21:29:42 14° 65° (ENE) 21:31:58 145.840 MHz, 145.915 MHz
FUNcube-1 23 Oct 22:04:41 22:07:01 14° 65° (ENE) 22:09:20 145.950 - 145.970 MHz USB
ISS 23 Oct 22:05:30 22:08:01 20° 230° (SW) 22:10:32 145.800 FM
Oscar 11 23 Oct 22:08:13 22:12:07 34° 71° (ENE) 22:16:01 145.825 FM, Beacon 2401.500 USB
KITSAT 1 23 Oct 22:12:36 22:20:28 53° 55° (NE) 22:28:17 435.175 FM
RS-15 23 Oct 22:13:15 22:22:46 35° 106° (ESE) 22:32:08 29.354 - 29.394 USB, Beacon 29.352 USB
SO-50 23 Oct 22:13:37 22:17:29 23° 48° (NE) 22:21:23 436.795 FM
HO-68 23 Oct 22:17:46 22:24:50 64° 257° (WSW) 22:31:58 435.675 MHz FM
ZACube-1 23 Oct 22:53:28 22:57:52 47° 73° (ENE) 23:02:14 437.345 MHz
UKube-1 23 Oct 23:01:14 23:05:27 49° 260° (W) 23:09:41 145.840 MHz, 145.915 MHz
FUNcube-1 23 Oct 23:38:24 23:42:55 55° 260° (W) 23:47:23 145.950 - 145.970 MHz USB
UOSAT-12 23 Oct 23:44:19 23:47:32 18° 45° (NE) 23:50:42 437.025 FM, 437.400 FM
Oscar 11 23 Oct 23:45:19 23:48:21 19° 266° (W) 23:51:24 145.825 FM, Beacon 2401.500 USB
SO-50 23 Oct 23:53:37 23:58:13 44° 245° (WSW) 00:02:50 436.795 FM
MaSat-1 23 Oct 23:54:10 23:56:47 16° 106° (ESE) 23:59:17 437.345 MHz
KITSAT 1 24 Oct 00:08:33 00:15:29 33° 253° (WSW) 00:22:25 435.175 FM
RS-15 24 Oct 00:23:36 00:34:26 61° 306° (NW) 00:45:15 29.354 - 29.394 USB, Beacon 29.352 USB
ZACube-1 24 Oct 00:31:48 00:34:27 15° 268° (W) 00:37:06 437.345 MHz
UOSAT-12 24 Oct 01:23:25 01:28:03 58° 243° (WSW) 01:32:34 437.025 FM, 437.400 FM
MaSat-1 24 Oct 01:28:20 01:32:14 37° 297° (WNW) 01:35:50 437.345 MHz
Oscar 16 24 Oct 02:34:40 02:39:06 29° 96° (E) 02:43:29 437.025 USB, Beacon 2401.1428
AO-Echo 24 Oct 02:38:58 02:42:20 17° 92° (E) 02:45:40 ?
RS-15 24 Oct 02:42:09 02:49:41 20° 335° (NNW) 02:57:19 29.354 - 29.394 USB, Beacon 29.352 USB
Uribyol 2 24 Oct 02:53:12 02:56:40 18° 93° (E) 03:00:06 436.500 FM
ITAMSAT 1 24 Oct 02:58:48 03:02:28 19° 93° (E) 03:06:07 435.822 SSB
Gurwin Techsat 1B 24 Oct 03:13:39 03:16:11 13° 91° (E) 03:18:43 435.225 FM
JAS-1B 24 Oct 03:25:18 03:32:03 73° 103° (ESE) 03:40:09 435.800 - 435.900 CW/SSB
TMSAT-1 24 Oct 03:25:47 03:28:03 13° 90° (E) 03:30:19 436.925 FM
Oscar 19 24 Oct 03:27:47 03:32:55 85° 284° (WNW) 03:38:01 437.125 CW, 437.150 USB
Oscar 10/S400 24 Oct 03:38:32 04:13:01 12° 253° (WSW) 05:01:33 145.825 - 145.975 CW/USB, Beacon 145.810 USB
AO-27 24 Oct 03:43:02 03:48:10 54° 100° (E) 03:53:15 436.795 MHz FM
Sapphire 24 Oct 04:12:05 04:16:34 27° 108° (ESE) 04:21:05 437.095 MHz 1200 baud AX-25 AFSK
Oscar 16 24 Oct 04:13:57 04:18:22 30° 292° (WNW) 04:22:46 437.025 USB, Beacon 2401.1428
AO-Echo 24 Oct 04:16:11 04:21:22 55° 287° (WNW) 04:26:32 ?
AO-7 24 Oct 04:29:51 04:34:31 16° 91° (E) 04:39:08 29.400 - 29.500 MHz
Uribyol 2 24 Oct 04:31:22 04:36:23 49° 288° (WNW) 04:41:22 436.500 FM
PCSat 24 Oct 04:33:55 04:39:04 48° 112° (ESE) 04:44:16 145.825 MHz
ITAMSAT 1 24 Oct 04:37:10 04:42:10 47° 289° (WNW) 04:47:07 435.822 SSB
Gurwin Techsat 1B 24 Oct 04:51:18 04:56:35 66° 286° (WNW) 05:01:50 435.225 FM
RS-15 24 Oct 05:02:09 05:08:20 16° 13° (NNE) 05:14:37 29.354 - 29.394 USB, Beacon 29.352 USB
TMSAT-1 24 Oct 05:03:08 05:08:26 70° 286° (WNW) 05:13:41 436.925 FM
OPAL 24 Oct 05:04:39 05:08:40 24° 64° (ENE) 05:12:39 ?
JAS-1B 24 Oct 05:17:41 05:22:14 20° 296° (WNW) 05:27:17 435.800 - 435.900 CW/SSB
AO-27 24 Oct 05:23:47 05:27:13 18° 296° (WNW) 05:30:38 436.795 MHz FM
